| time (UTC) | temp C | wind direction | speed KPH | gust KPH | rain 1hr cm | rain 24hr cm | rain mn cm | humidity % | barometer mb |
| 20260504050538 | 18 | 352 | 14.5 | 37.0 | 0.00 | 0.00 | 0.00 | 57 | 1009.8 |
| 20260504050532 | 18 | 18 | 14.5 | 33.8 | 0.00 | 0.00 | 0.00 | 57 | 1009.9 |
| 20260504045531 | 18 | 324 | 12.9 | 37.0 | 0.00 | 0.00 | 0.00 | 57 | 1009.9 |
| 20260504045031 | 18 | 353 | 12.9 | 35.4 | 0.00 | 0.00 | 0.00 | 58 | 1009.8 |
| 20260504044529 | 18 | 344 | 14.5 | 35.4 | 0.00 | 0.00 | 0.00 | 58 | 1009.8 |
| 20260504044030 | 18 | 350 | 14.5 | 32.2 | 0.00 | 0.00 | 0.00 | 58 | 1009.8 |
| 20260504043529 | 18 | 330 | 11.3 | 30.6 | 0.00 | 0.00 | 0.00 | 57 | 1009.8 |
| 20260504043036 | 18 | 270 | 9.7 | 27.4 | 0.00 | 0.00 | 0.00 | 57 | 1009.8 |
| 20260504043027 | 18 | 318 | 9.7 | 20.9 | 0.00 | 0.00 | 0.00 | 57 | 1009.8 |
| 20260504042528 | 18 | 280 | 11.3 | 27.4 | 0.00 | 0.00 | 0.00 | 57 | 1009.9 |
| 20260504041524 | 19 | 15 | 11.3 | 27.4 | 0.00 | 0.00 | 0.00 | 57 | 1009.7 |
| 20260504041024 | 18 | 335 | 11.3 | 27.4 | 0.00 | 0.00 | 0.00 | 57 | 1009.7 |
| 20260504040528 | 18 | 352 | 11.3 | 25.7 | 0.00 | 0.00 | 0.00 | 56 | 1009.7 |
| 20260504040026 | 18 | 10 | 11.3 | 37.0 | 0.00 | 0.00 | 0.00 | 56 | 1009.7 |
| 20260504035525 | 18 | 333 | 12.9 | 37.0 | 0.00 | 0.00 | 0.00 | 57 | 1009.6 |
| 20260504035025 | 18 | 326 | 11.3 | 29.0 | 0.00 | 0.00 | 0.00 | 56 | 1009.7 |
| 20260504034526 | 18 | 333 | 9.7 | 27.4 | 0.00 | 0.00 | 0.00 | 57 | 1009.5 |
| 20260504034027 | 18 | 316 | 11.3 | 27.4 | 0.00 | 0.00 | 0.00 | 56 | 1009.7 |
| 20260504033525 | 18 | 353 | 11.3 | 27.4 | 0.00 | 0.00 | 0.00 | 56 | 1009.8 |
| 20260504033030 | 18 | 39 | 12.9 | 29.0 | 0.00 | 0.00 | 0.00 | 56 | 1010.0 |
| 20260504033025 | 18 | 351 | 11.3 | 27.4 | 0.00 | 0.00 | 0.00 | 56 | 1009.8 |
| 20260504032024 | 18 | 354 | 12.9 | 33.8 | 0.00 | 0.00 | 0.00 | 55 | 1009.8 |
| 20260504031526 | 18 | 333 | 12.9 | 33.8 | 0.00 | 0.00 | 0.00 | 54 | 1010.0 |
| 20260504031023 | 19 | 352 | 11.3 | 25.7 | 0.00 | 0.00 | 0.00 | 54 | 1010.0 |
| 20260504030524 | 19 | 307 | 12.9 | 37.0 | 0.00 | 0.00 | 0.00 | 55 | 1010.0 |
| 20260504030023 | 18 | 326 | 12.9 | 37.0 | 0.00 | 0.00 | 0.00 | 56 | 1010.1 |
| 20260504025523 | 18 | 323 | 11.3 | 37.0 | 0.00 | 0.00 | 0.00 | 56 | 1010.2 |
| 20260504025025 | 18 | 296 | 9.7 | 24.1 | 0.00 | 0.00 | 0.00 | 58 | 1010.3 |
| 20260504024530 | 18 | 4 | 14.5 | 33.8 | 0.00 | 0.00 | 0.00 | 59 | 1010.6 |
| 20260504024523 | 18 | 16 | 11.3 | 33.8 | 0.00 | 0.00 | 0.00 | 58 | 1010.5 |
| 20260504023523 | 18 | 335 | 14.5 | 30.6 | 0.00 | 0.00 | 0.00 | 58 | 1010.7 |
| 20260504023029 | 18 | 326 | 11.3 | 29.0 | 0.00 | 0.00 | 0.00 | 59 | 1010.7 |
| 20260504023023 | 18 | 351 | 12.9 | 29.0 | 0.00 | 0.00 | 0.00 | 59 | 1010.8 |
| 20260504022022 | 18 | 349 | 11.3 | 29.0 | 0.00 | 0.00 | 0.00 | 59 | 1010.9 |
| 20260504021522 | 18 | 21 | 12.9 | 29.0 | 0.00 | 0.00 | 0.00 | 60 | 1010.9 |
| 20260504021021 | 17 | 293 | 12.9 | 33.8 | 0.00 | 0.00 | 0.00 | 60 | 1011.0 |
| 20260504020522 | 17 | 349 | 11.3 | 33.8 | 0.00 | 0.00 | 0.00 | 60 | 1011.1 |
| 20260504020027 | 17 | 352 | 11.3 | 41.8 | 0.00 | 0.00 | 0.00 | 60 | 1011.2 |
| 20260504020021 | 18 | 14 | 11.3 | 41.8 | 0.00 | 0.00 | 0.00 | 60 | 1011.1 |
| 20260504015650 | 17 | 296 | 12.9 | 41.8 | 0.00 | 0.03 | 0.00 | 60 | 1011.3 |
| 20260504015151 | 17 | 291 | 12.9 | 41.8 | 0.00 | 0.03 | 0.00 | 62 | 1011.4 |
| 20260504014020 | 17 | 35 | 11.3 | 24.1 | 0.00 | 0.03 | 0.00 | 61 | 1011.4 |
| 20260504013522 | 17 | 308 | 11.3 | 25.7 | 0.00 | 0.03 | 0.00 | 62 | 1011.5 |
| 20260504013022 | 17 | 310 | 14.5 | 27.4 | 0.00 | 0.03 | 0.00 | 63 | 1011.5 |
| 20260504012526 | 17 | 328 | 12.9 | 41.8 | 0.00 | 0.03 | 0.00 | 63 | 1011.4 |
| 20260504012520 | 17 | 345 | 14.5 | 41.8 | 0.00 | 0.03 | 0.00 | 64 | 1011.5 |
| 20260504011518 | 17 | 346 | 11.3 | 33.8 | 0.00 | 0.05 | 0.00 | 64 | 1011.5 |
| 20260504011018 | 17 | 13 | 12.9 | 27.4 | 0.00 | 0.10 | 0.00 | 65 | 1011.5 |
| 20260504010519 | 16 | 292 | 11.3 | 27.4 | 0.00 | 0.10 | 0.00 | 66 | 1011.5 |
| 20260504010025 | 16 | 285 | 11.3 | 32.2 | 0.00 | 0.15 | 0.00 | 67 | 1011.7 |
| 20260504010021 | 16 | 344 | 9.7 | 29.0 | 0.00 | 0.15 | 0.00 | 66 | 1011.6 |
| 20260504005020 | 16 | 352 | 12.9 | 32.2 | 0.00 | 0.15 | 0.00 | 67 | 1011.7 |
| 20260504004516 | 16 | 326 | 12.9 | 32.2 | 0.00 | 0.15 | 0.00 | 67 | 1011.7 |
| 20260504004017 | 16 | 344 | 12.9 | 32.2 | 0.00 | 0.15 | 0.00 | 67 | 1011.6 |
| 20260504003524 | 16 | 348 | 11.3 | 35.4 | 0.00 | 0.23 | 0.00 | 68 | 1011.5 |
| 20260504003518 | 16 | 311 | 11.3 | 30.6 | 0.00 | 0.15 | 0.00 | 67 | 1011.6 |
| 20260504003017 | 16 | 349 | 9.7 | 30.6 | 0.00 | 0.18 | 0.00 | 66 | 1011.6 |
| 20260504002019 | 16 | 339 | 12.9 | 35.4 | 0.00 | 0.25 | 0.00 | 68 | 1011.6 |
| 20260504002015 | 16 | 333 | 12.9 | 24.1 | 0.00 | 0.28 | 0.00 | 68 | 1011.6 |
| 20260504001014 | 16 | 303 | 11.3 | 25.7 | 0.00 | 0.30 | 0.00 | 68 | 1011.7 |
| 20260504000516 | 16 | 340 | 11.3 | 29.0 | 0.00 | 0.33 | 0.00 | 69 | 1011.7 |
| 20260504000012 | 16 | 26 | 9.7 | 29.0 | 0.00 | 0.38 | 0.00 | 69 | 1011.7 |
| 20260503235517 | 16 | 19 | 11.3 | 27.4 | 0.00 | 0.43 | 0.00 | 69 | 1011.7 |
| 20260503235511 | 16 | 340 | 9.7 | 27.4 | 0.00 | 0.46 | 0.00 | 69 | 1011.6 |
| 20260503234510 | 16 | 303 | 8.0 | 27.4 | 0.00 | 0.48 | 0.00 | 70 | 1011.6 |
| 20260503234011 | 16 | 301 | 8.0 | 27.4 | 0.00 | 0.53 | 0.00 | 70 | 1011.6 |
| 20260503233517 | 16 | 314 | 12.9 | 29.0 | 0.00 | 0.53 | 0.00 | 71 | 1011.7 |
| 20260503233512 | 16 | 8 | 11.3 | 29.0 | 0.00 | 0.53 | 0.00 | 70 | 1011.8 |
| 20260503232513 | 16 | 345 | 9.7 | 25.7 | 0.00 | 0.56 | 0.00 | 71 | 1011.7 |
| 20260503232012 | 16 | 1 | 9.7 | 25.7 | 0.00 | 0.56 | 0.00 | 71 | 1011.7 |
| 20260503231512 | 16 | 336 | 9.7 | 22.5 | 0.00 | 0.56 | 0.00 | 71 | 1011.7 |
| 20260503231010 | 16 | 332 | 8.0 | 22.5 | 0.00 | 0.56 | 0.00 | 71 | 1011.8 |
| 20260503230511 | 16 | 329 | 8.0 | 22.5 | 0.00 | 0.56 | 0.00 | 72 | 1011.8 |
| 20260503230011 | 15 | 324 | 9.7 | 27.4 | 0.00 | 0.56 | 0.00 | 72 | 1011.9 |
| 20260503225513 | 15 | 342 | 9.7 | 27.4 | 0.00 | 0.56 | 0.00 | 72 | 1011.8 |
| 20260503225011 | 15 | 351 | 9.7 | 24.1 | 0.00 | 0.56 | 0.00 | 73 | 1011.8 |
| 20260503224512 | 15 | 343 | 9.7 | 24.1 | 0.00 | 0.56 | 0.00 | 73 | 1011.8 |
| 20260503224017 | 15 | 0 | 9.7 | 30.6 | 0.00 | 0.56 | 0.00 | 74 | 1011.8 |
| 20260503224011 | 15 | 312 | 9.7 | 30.6 | 0.00 | 0.56 | 0.00 | 74 | 1011.8 |
| 20260503223637 | 15 | 343 | 9.7 | 22.5 | 0.00 | 0.56 | 0.00 | 74 | 1011.9 |
| 20260503222510 | 15 | 355 | 8.0 | 20.9 | 0.00 | 0.56 | 0.00 | 74 | 1012.0 |
| 20260503222011 | 15 | 347 | 8.0 | 30.6 | 0.00 | 0.56 | 0.00 | 74 | 1012.1 |
| 20260503221511 | 15 | 343 | 9.7 | 30.6 | 0.00 | 0.56 | 0.00 | 74 | 1011.9 |
| 20260503221020 | 15 | 335 | 8.0 | 20.9 | 0.00 | 0.56 | 0.00 | 75 | 1012.1 |
| 20260503221010 | 15 | 322 | 8.0 | 24.1 | 0.00 | 0.56 | 0.00 | 75 | 1012.0 |
| 20260503220512 | 15 | 324 | 8.0 | 24.1 | 0.00 | 0.56 | 0.00 | 75 | 1011.9 |
| 20260503215509 | 15 | 353 | 8.0 | 30.6 | 0.00 | 0.56 | 0.00 | 75 | 1012.0 |
| 20260503215008 | 15 | 340 | 8.0 | 30.6 | 0.00 | 0.56 | 0.00 | 75 | 1012.0 |
| 20260503214508 | 14 | 345 | 8.0 | 24.1 | 0.00 | 0.56 | 0.00 | 75 | 1011.9 |
| 20260503214008 | 14 | 342 | 6.4 | 19.3 | 0.00 | 0.56 | 0.00 | 75 | 1011.9 |
| 20260503213510 | 14 | 352 | 6.4 | 20.9 | 0.00 | 0.56 | 0.00 | 75 | 1011.9 |
| 20260503213009 | 14 | 343 | 6.4 | 20.9 | 0.00 | 0.56 | 0.00 | 75 | 1011.9 |
| 20260503212506 | 14 | 341 | 4.8 | 16.1 | 0.00 | 0.56 | 0.00 | 75 | 1011.9 |
| 20260503212013 | 14 | 1 | 4.8 | 16.1 | 0.00 | 0.56 | 0.00 | 75 | 1011.7 |
| 20260503212007 | 14 | 307 | 4.8 | 16.1 | 0.00 | 0.56 | 0.00 | 75 | 1011.7 |
| 20260503211005 | 14 | 328 | 3.2 | 11.3 | 0.00 | 0.56 | 0.00 | 75 | 1011.7 |
| 20260503210512 | 14 | 322 | 4.8 | 14.5 | 0.00 | 0.56 | 0.00 | 75 | 1011.6 |
| 20260503210506 | 14 | 332 | 3.2 | 14.5 | 0.00 | 0.56 | 0.00 | 75 | 1011.6 |
| 20260503210133 | 14 | 348 | 4.8 | 17.7 | 0.00 | 0.56 | 0.00 | 76 | 1011.7 |
| 20260503205007 | 14 | 335 | 4.8 | 17.7 | 0.00 | 0.56 | 0.00 | 76 | 1011.7 |
| 20260503204509 | 14 | 335 | 4.8 | 12.9 | 0.00 | 0.56 | 0.00 | 76 | 1011.7 |
| 20260503204008 | 14 | 339 | 4.8 | 11.3 | 0.00 | 0.56 | 0.00 | 76 | 1011.7 |
| 20260503203505 | 14 | 327 | 3.2 | 11.3 | 0.00 | 0.56 | 0.00 | 77 | 1011.6 |
| 20260503203005 | 14 | 330 | 3.2 | 12.9 | 0.00 | 0.56 | 0.00 | 77 | 1011.6 |
| 20260503202504 | 14 | 330 | 3.2 | 12.9 | 0.00 | 0.56 | 0.00 | 77 | 1011.6 |
| 20260503202002 | 14 | 318 | 3.2 | 14.5 | 0.00 | 0.56 | 0.00 | 77 | 1011.6 |
| 20260503201504 | 14 | 312 | 3.2 | 14.5 | 0.00 | 0.56 | 0.00 | 77 | 1011.5 |
| 20260503201003 | 14 | 328 | 4.8 | 11.3 | 0.00 | 0.56 | 0.00 | 77 | 1011.5 |
| 20260503200503 | 14 | 333 | 4.8 | 14.5 | 0.00 | 0.56 | 0.00 | 78 | 1011.4 |
| 20260503200003 | 14 | 318 | 3.2 | 14.5 | 0.00 | 0.56 | 0.00 | 78 | 1011.4 |
| 20260503195503 | 14 | 326 | 4.8 | 12.9 | 0.00 | 0.56 | 0.00 | 78 | 1011.4 |
| 20260503195001 | 14 | 326 | 6.4 | 19.3 | 0.00 | 0.56 | 0.00 | 78 | 1011.4 |
| 20260503194502 | 13 | 336 | 4.8 | 24.1 | 0.00 | 0.56 | 0.00 | 79 | 1011.5 |
| 20260503194000 | 13 | 348 | 4.8 | 24.1 | 0.00 | 0.56 | 0.00 | 79 | 1011.5 |
| 20260503193501 | 13 | 343 | 4.8 | 16.1 | 0.00 | 0.56 | 0.00 | 80 | 1011.4 |
| 20260503193007 | 13 | 344 | 3.2 | 9.7 | 0.00 | 0.56 | 0.00 | 80 | 1011.5 |
| 20260503193001 | 13 | 339 | 4.8 | 9.7 | 0.00 | 0.56 | 0.00 | 80 | 1011.5 |
| 20260503192628 | 13 | 356 | 1.6 | 8.0 | 0.00 | 0.56 | 0.00 | 81 | 1011.5 |
| 20260503191459 | 13 | 357 | 1.6 | 8.0 | 0.00 | 0.56 | 0.00 | 81 | 1011.7 |
| 20260503190959 | 13 | 347 | 3.2 | 9.7 | 0.00 | 0.56 | 0.00 | 82 | 1011.8 |
| 20260503190506 | 13 | 351 | 1.6 | 8.0 | 0.00 | 0.56 | 0.00 | 82 | 1011.9 |
| 20260503190501 | 13 | 347 | 3.2 | 9.7 | 0.00 | 0.56 | 0.00 | 82 | 1011.9 |
| 20260503185505 | 13 | 48 | 0.0 | 9.7 | 0.00 | 0.56 | 0.00 | 82 | 1012.0 |
| 20260503185459 | 13 | 2 | 1.6 | 9.7 | 0.00 | 0.56 | 0.00 | 82 | 1011.9 |
| 20260503184457 | 13 | 330 | 0.0 | 4.8 | 0.00 | 0.56 | 0.00 | 82 | 1012.1 |
| 20260503183959 | 13 | 330 | 0.0 | 4.8 | 0.00 | 0.56 | 0.00 | 82 | 1012.0 |
| 20260503183458 | 13 | 328 | 1.6 | 3.2 | 0.00 | 0.56 | 0.00 | 82 | 1012.1 |
| 20260503182959 | 13 | 328 | 1.6 | 4.8 | 0.00 | 0.56 | 0.00 | 82 | 1012.1 |
| 20260503182459 | 13 | 327 | 1.6 | 6.4 | 0.00 | 0.56 | 0.00 | 82 | 1012.1 |
| 20260503181956 | 13 | 327 | 3.2 | 6.4 | 0.00 | 0.56 | 0.00 | 82 | 1012.1 |
| 20260503181455 | 13 | 327 | 3.2 | 14.5 | 0.00 | 0.56 | 0.00 | 82 | 1012.1 |
| 20260503180955 | 13 | 326 | 4.8 | 14.5 | 0.00 | 0.56 | 0.00 | 82 | 1012.2 |
| 20260503180455 | 13 | 351 | 3.2 | 8.0 | 0.00 | 0.56 | 0.00 | 82 | 1012.2 |
| 20260503175955 | 13 | 351 | 3.2 | 8.0 | 0.00 | 0.56 | 0.00 | 82 | 1012.3 |
| 20260503175455 | 13 | 351 | 3.2 | 8.0 | 0.00 | 0.56 | 0.00 | 82 | 1012.3 |
| 20260503174957 | 13 | 352 | 3.2 | 9.7 | 0.00 | 0.56 | 0.00 | 82 | 1012.4 |
| 20260503174456 | 13 | 333 | 3.2 | 9.7 | 0.00 | 0.56 | 0.00 | 81 | 1012.4 |
| 20260503174124 | 14 | 320 | 3.2 | 8.0 | 0.00 | 0.56 | 0.00 | 81 | 1012.4 |
| 20260503174002 | 13 | 339 | 3.2 | 8.0 | 0.00 | 0.56 | 0.00 | 81 | 1012.4 |
| 20260503173956 | 13 | 345 | 3.2 | 8.0 | 0.00 | 0.56 | 0.00 | 81 | 1012.4 |
| 20260503172457 | 14 | 335 | 3.2 | 8.0 | 0.00 | 0.56 | 0.00 | 81 | 1012.5 |
| 20260503171958 | 14 | 337 | 3.2 | 8.0 | 0.00 | 0.56 | 0.00 | 81 | 1012.5 |
| 20260503171953 | 14 | 338 | 3.2 | 8.0 | 0.00 | 0.56 | 0.00 | 81 | 1012.5 |
| 20260503170954 | 14 | 338 | 3.2 | 8.0 | 0.00 | 0.56 | 0.00 | 81 | 1012.6 |
| 20260503170501 | 14 | 336 | 3.2 | 14.5 | 0.00 | 0.56 | 0.00 | 81 | 1012.6 |
| 20260503170454 | 14 | 337 | 3.2 | 8.0 | 0.00 | 0.56 | 0.00 | 81 | 1012.5 |
| 20260503150941 | 15 | 37 | 3.2 | 11.3 | 0.00 | 0.56 | 0.00 | 81 | 1012.8 |
| 20260503150441 | 15 | 341 | 3.2 | 9.7 | 0.00 | 0.56 | 0.00 | 81 | 1012.7 |
| 20260503130937 | 15 | 332 | 6.4 | 14.5 | 0.00 | 0.56 | 0.56 | 79 | 1013.3 |
| 20260503130435 | 15 | 327 | 4.8 | 14.5 | 0.00 | 0.56 | 0.56 | 78 | 1013.3 |
| 20260503110433 | 16 | 353 | 1.6 | 4.8 | 0.00 | 0.56 | 0.56 | 73 | 1013.1 |
| 20260503081415 | 17 | 295 | 3.2 | 11.3 | 0.00 | 0.56 | 0.56 | 63 | 1011.7 |
| 20260503080914 | 17 | 294 | 3.2 | 11.3 | 0.00 | 0.56 | 0.56 | 62 | 1011.7 |
| 20260503080413 | 17 | 293 | 3.2 | 14.5 | 0.00 | 0.56 | 0.56 | 61 | 1011.8 |
| 20260503072912 | 18 | 301 | 1.6 | 6.4 | 0.00 | 0.56 | 0.56 | 61 | 1011.6 |
| 20260503072413 | 18 | 301 | 3.2 | 9.7 | 0.00 | 0.56 | 0.56 | 61 | 1011.6 |
| 20260503071911 | 18 | 301 | 3.2 | 9.7 | 0.00 | 0.56 | 0.56 | 61 | 1011.6 |
| 20260503071413 | 18 | 301 | 3.2 | 9.7 | 0.00 | 0.56 | 0.56 | 60 | 1011.5 |
| 20260503070913 | 18 | 301 | 3.2 | 9.7 | 0.00 | 0.56 | 0.56 | 59 | 1011.4 |
| 20260503070413 | 18 | 301 | 3.2 | 12.9 | 0.00 | 0.56 | 0.56 | 58 | 1011.4 |
| 20260503054905 | 18 | 29 | 6.4 | 14.5 | 0.00 | 0.56 | 0.56 | 72 | 1011.0 |
| 20260503054403 | 18 | 326 | 4.8 | 12.9 | 0.00 | 0.56 | 0.56 | 74 | 1011.0 |
| 20260503053902 | 18 | 299 | 4.8 | 17.7 | 0.00 | 0.56 | 0.56 | 75 | 1011.1 |
| 20260503053402 | 18 | 297 | 4.8 | 17.7 | 0.00 | 0.56 | 0.56 | 75 | 1011.1 |
| 20260503052907 | 18 | 299 | 4.8 | 14.5 | 0.00 | 0.56 | 0.56 | 75 | 1011.0 |
| 20260503052903 | 18 | 312 | 4.8 | 14.5 | 0.00 | 0.56 | 0.56 | 75 | 1011.1 |
| 20260503052006 | 18 | 295 | 4.8 | 17.7 | 0.00 | 0.56 | 0.56 | 75 | 1011.0 |